Retour au catalogue

TITAN 3C TRANSTAGE DEB

ActifLEO
NORAD 1859·DEBRIS·🇺🇸 United States

Lancé Oct 15, 1965 depuis Cape Canaveral Space Force Station

Loading…

Prochains Passages (prochaines 24 heures)

TLE

FraisSource: Space-Track

Époque: Sep 14, 2026, 15:11 UTC

1 01859U 65082ES  26257.63283699  .00000335  00000-0  75379-4 0  9998
2 01859  32.1273   7.8962 0066472  79.7317 281.0811 14.49208093200052

Suivez TITAN 3C TRANSTAGE DEB en temps réel avec AllMySat

Download on the App Store